Regional Weather Roundup
Issued by NWS

Home | Current Version | Previous Version | Text Only | Print | Product List | Glossary On
Versions: 1 2 3 4 5 6 7 8 9 10 11 12 13 14 15 16 17 18 19 20 21 22 23 24 25 26 27
000
ASUS45 KCYS 250010
RWRWY

WYOMING REGIONAL WEATHER ROUNDUP
NATIONAL WEATHER SERVICE CHEYENNE WY
500 PM MST SAT FEB 24 2018

NOTE:  "FAIR" INDICATES FEW OR NO CLOUDS BELOW 12,000 FEET
WITH NO SIGNIFICANT WEATHER AND/OR OBSTRUCTIONS TO VISIBILITY.

WYZ001-250100-
YELLOWSTONE NATIONAL PARK

CITY           SKY/WX    TMP DP  RH WIND       PRES   REMARKS
LK YELLOWSTONE   N/A     10   4  76 VRB3      29.71S
6HR MIN TEMP:   8; 6HR MAX TEMP:  13;

W YELLOWSTONE  NOT AVBL

$$
WYZ002>013-054>058-071-098>099-250100-
NORTHERN WYOMING

CITY           SKY/WX    TMP DP  RH WIND       PRES   REMARKS
JACKSON        CLOUDY    18   9  68 S16G23    29.77S WCI   3
CODY           FAIR      28   4  35 W22G31    29.68S WCI  14
GREYBULL       FAIR      19  10  68 E6        29.74S WCI  11
6HR MIN TEMP:   5; 6HR MAX TEMP:  24;

WORLAND        FAIR      24  12  60 E10       29.72F WCI  14
6HR MIN TEMP:  12; 6HR MAX TEMP:  28; 6HR PCP: TRACE;

SHERIDAN       MOCLDY    22   9  57 S3        29.68S
6HR MIN TEMP:  22; 6HR MAX TEMP:  30;

BUFFALO        FAIR      21   4  47 S12       29.66S WCI   9
6HR MIN TEMP:  21; 6HR MAX TEMP:  26;

GILLETTE       FAIR      21   7  54 SW12      29.68R WCI   9
6HR MIN TEMP:  20; 6HR MAX TEMP:  26;

HULETT         FAIR      27   9  46 W14       29.67S WCI  15
NEWCASTLE      FAIR      21   9  58 CALM      29.71F

$$
WYZ014>020-022>026-101>103-250100-
CENTRAL WYOMING

CITY           SKY/WX    TMP DP  RH WIND       PRES   REMARKS
BIG PINEY      CLOUDY    19   8  62 SE3       29.78S
6HR MIN TEMP:  12; 6HR MAX TEMP:  20; 6HR PCP: TRACE;

PINEDALE       CLOUDY    18   3  53 E5        29.79S WCI  11
DUBOIS           N/A    N/A N/A N/A MISG        N/A
LANDER         FAIR      26   6  42 CALM      29.70S
6HR MIN TEMP:  22; 6HR MAX TEMP:  28;

RIVERTON       FAIR      24   6  46 S10       29.72R WCI  14
6HR MIN TEMP:  22; 6HR MAX TEMP:  29;

CASPER         FAIR      18  10  71 SW17      29.74S WCI   3
6HR MIN TEMP:  14; 6HR MAX TEMP:  23;

DOUGLAS        FAIR      23  10  57 W20       29.72R WCI   8
6HR MIN TEMP:  21; 6HR MAX TEMP:  26;


$$
WYZ021-027>030-104>119-250100-
SOUTHERN WYOMING

CITY           SKY/WX    TMP DP  RH WIND       PRES   REMARKS
EVANSTON       CLOUDY    16  11  80 SW16      29.82S WCI   1
6HR MIN TEMP:  15; 6HR MAX TEMP:  18;

FORT BRIDGER   MOCLDY    20  11  68 W17G23    29.85F WCI   5
ROCK SPRINGS   CLOUDY    17   8  67 W20       29.82S WCI   1
6HR MIN TEMP:  15; 6HR MAX TEMP:  18;

DIXON          CLOUDY    20   6  55 SW8       29.88S WCI  10
RAWLINS        FAIR      16   7  67 W18G31    29.78R WCI   0
6HR MIN TEMP:  12; 6HR MAX TEMP:  17;

SARATOGA       MOCLDY    18   3  53 SW18G35   29.80S WCI   2
LARAMIE        FAIR      16   3  56 W21G26    29.71R WCI  -1
6HR MIN TEMP:  13; 6HR MAX TEMP:  17;

CHEYENNE       FAIR      24   1  36 W24G33    29.73S WCI   8
6HR MIN TEMP:  22; 6HR MAX TEMP:  25;

TORRINGTON     FAIR      28  10  46 W18       29.75R WCI  15
6HR MIN TEMP:  28; 6HR MAX TEMP:  32;

PINE BLUFFS    FAIR      25   9  50 MISG      29.77S

$$




USA.gov is the U.S. government's official web portal to all federal, state and local government web resources and services.